Home   Weather   Vientiane   Past weeks

Flag for Laos Past Weather in Vientiane, Laos — Yesterday and Last 2 Weeks

Now
93 °F

Scattered clouds.


Feels Like: 101 °F
Forecast: 78 / 96 °F
Wind: 2 mph from Northwest

Location: Vientiane Airport

Current Time: Apr 26, 2017 at 5:12:28 pm

Latest Report: Apr 26, 2017 at 4:30 pm


Visibility: 5 mi

Pressure: 29.71 "Hg

Humidity: 49%

Dew Point: 72 °F

Location of VientianeLocation

Past Weather in Vientiane — Graph

°F

Vientiane Temperature Yesterday

Maximum temperature yesterday: 88 °F (at 5:00 pm)
Minimum temperature yesterday: 73 °F (at 6:00 am)
Average temperature yesterday: 80 °F

High & Low Weather Summary for the Past Weeks

 TemperatureHumidityPressure
High100 °F (Apr 21, 2:30 pm)100% (Apr 14, 6:00 am)30.01 "Hg (Apr 14, 6:00 am)
Low72 °F (Apr 14, 6:00 am)27% (Apr 21, 2:30 pm)29.62 "Hg (Apr 11, 3:30 pm)
Average85 °F65%29.79 "Hg
* Reported Apr 11 3:00 pm — Apr 26 3:30 pm, Vientiane, Weather by CustomWeather, © 2017

Note: Actual official high and low records may vary slightly from our data, if they occured in-between our weather recording intervals... More about our weather records

Advertising

Vientiane Weather History for the Previous 24 Hours

Scroll right to see more
 ConditionsComfort  
Time TempWeatherWind HumidityBarometerVisibility
3:30 pm
Wed, Apr 26
91 °FScattered clouds.2 mph52%29.74 "Hg5 mi
3:00 pm91 °FScattered clouds.5 mph52%29.74 "Hg5 mi
2:30 pm90 °FScattered clouds.2 mph55%29.77 "Hg5 mi
2:00 pm90 °FScattered clouds.2 mph59%29.77 "Hg5 mi
1:30 pm90 °FScattered clouds.5 mph59%29.80 "Hg5 mi
1:00 pm88 °FScattered clouds.2 mph62%29.83 "Hg5 mi
12:30 pm88 °FBroken clouds.5 mph59%29.83 "Hg5 mi
12:00 pm86 °FBroken clouds.5 mph66%29.86 "Hg5 mi
11:30 am86 °FBroken clouds.2 mph66%29.86 "Hg4 mi
11:00 am84 °FBroken clouds.2 mph70%29.89 "Hg4 mi
10:30 am84 °FBroken clouds.2 mph70%29.89 "Hg4 mi
10:00 am82 °FBroken clouds.2 mph74%29.89 "Hg4 mi
9:30 am82 °FBroken clouds.2 mph70%29.89 "Hg4 mi
9:00 am81 °FBroken clouds.2 mph79%29.89 "Hg4 mi
8:30 am79 °FFog.2 mph84%29.89 "Hg3 mi
8:00 am77 °FFog.5 mph89%29.89 "Hg3 mi
7:30 am75 °FFog.5 mph94%29.86 "Hg3 mi
7:00 am75 °FFog.2 mph94%29.86 "Hg3 mi
6:30 am73 °FFog.2 mph100%29.83 "Hg2 mi
6:00 am73 °FFog.No wind100%29.83 "Hg2 mi
11:30 pm
Tue, Apr 25
77 °FFog.2 mph89%29.83 "Hg2 mi
11:00 pm77 °FFog.2 mph89%29.83 "Hg2 mi
10:30 pm77 °FFog.5 mph89%29.83 "Hg2 mi
9:30 pm79 °FFog.5 mph84%29.80 "Hg2 mi
9:00 pm79 °FFog.5 mph84%29.80 "Hg2 mi
8:30 pm77 °FFog.5 mph83%29.80 "Hg2 mi
8:00 pm79 °FFog.5 mph79%29.77 "Hg3 mi
7:30 pm79 °FFog.7 mph79%29.77 "Hg3 mi
7:00 pm81 °FFog.7 mph74%29.74 "Hg3 mi
6:30 pm81 °FClear.5 mph74%29.74 "Hg4 mi
6:00 pm84 °FScattered clouds.2 mph66%29.74 "Hg4 mi
5:30 pm86 °FScattered clouds.2 mph59%29.74 "Hg5 mi
5:00 pm88 °FScattered clouds.No wind55%29.71 "Hg5 mi
Weather by CustomWeather, © 2017

See weather overviewHow to use our weather pages